Overview Statistics Trail Chart Weather Telemetry Raw packets
 

This is the latest recevied weather packets stored in our database for station/object S59MA-6. If no packets are shown the sender has not sent any weather packets the latest 10 day(s).

<< 82 83 84 85 86 87 88 >>
Time Temp. Humidity Pressure Rain* Wind** Luminosity Snow
1787922935 33.33° C 48% 1003.9 hPa 253.75 mm - - -
1787922636 33.33° C 48% 1003.8 hPa 253.75 mm - - -
1787921735 32.78° C 48% 1004.2 hPa 253.75 mm - - -
1787921435 32.78° C 49% 1004.2 hPa 253.75 mm - - -
1787921137 32.78° C 50% 1004.2 hPa 253.75 mm - - -
1787920835 32.78° C 50% 1004.1 hPa 253.75 mm - - -
1787920535 32.78° C 51% 1004.1 hPa 253.75 mm - - -
1787920235 32.78° C 52% 1004.1 hPa 253.75 mm - - -
1787919936 32.78° C 56% 1003.9 hPa 253.75 mm - - -
1787919635 32.78° C 61% 1003.6 hPa 253.75 mm - - -
1787919335 32.22° C 60% 1003.2 hPa 8.13 mm - - -
1787919035 32.22° C 61% 1004 hPa 140.21 mm - - -
1787918735 31.67° C 62% 1004 hPa 140.21 mm - - -
1787918435 31.67° C 62% 1004 hPa 140.21 mm - - -
1787918135 31.67° C 62% 1002.9 hPa 8.13 mm - - -
1787917835 31.67° C 63% 1002.9 hPa 253.75 mm - - -
1787917536 31.11° C 62% 1003.9 hPa 253.75 mm - - -
1787917235 31.11° C 62% 1003.8 hPa 253.75 mm - - -
1787916936 31.11° C 62% 1003 hPa 253.75 mm - - -
1787916635 30.56° C 62% 1003 hPa 253.75 mm - - -
1787916335 30.56° C 62% 1002.9 hPa 253.75 mm - - -
1787915735 31.11° C 62% 1003 hPa 0 mm - - -
1787915435 31.11° C 63% 1003.8 hPa 0 mm - - -
1787915135 31.11° C 64% 1003.6 hPa 0 mm - - -
1787914835 31.11° C 65% 1003.8 hPa 0 mm - - -

* Rain latest hour (hover to see other rain measurements)
** Current wind speed in m/s (hover to see current wind gust speed)